Menomonie, WI

1:16 PM CDT on May 24, 2017 (GMT -0500)
Menomonie

Weather History for KLUM - January, 2014

Change the Weather History Date:

Thursday, January 16, 2014

  Actual Average (KEAU) Record (KEAU)
Temperature  
Mean Temperature 22 °F -  
Max Temperature 34 °F 21 °F 47 °F (1973)
Min Temperature 9 °F 2 °F -27 °F (1977)
Degree Days  
Heating Degree Days 44    
Moisture  
Dew Point 12 °F    
Average Humidity 73    
Maximum Humidity 96    
Minimum Humidity 55    
Precipitation  
Precipitation 0.00 in - - ()
Sea Level Pressure  
Sea Level Pressure 29.52 in    
Wind  
Wind Speed 9 mph (West)    
Max Wind Speed 31 mph    
Max Gust Speed 43 mph    
Visibility 8 miles    
Events Snow    
Averages and records for this station are not official NWS values.
T = Trace of Precipitation, MM = Missing Value Source: NWS Daily Summary

Daily Weather History Graph

Daily Weather History Graph

Search for Another Location

Airport or City:

Trip Planner

Search our weather history database for the weather conditions in past years. The results will help you decide how hot, cold, wet, or windy it might be!

Date:

Astronomy

Jan. 16, 2014 Rise Set
Actual Time 7:41 AM CST 4:53 PM CST
Civil Twilight 7:08 AM CST 5:26 PM CST
Nautical Twilight 6:32 AM CST 6:02 PM CST
Astronomical Twilight 5:57 AM CST 6:37 PM CST
Moon 5:50 PM CST (1/16) 7:31 AM CST (1/16)
Length of Visible Light 10h 17m
Length of Day
9h 12m
Full, 100% of the Moon is Illuminated
Jan 16
Full
Jan 23
Last Quarter
Jan 30
New
Feb 6
First Quarter
Feb 14
Full

Hourly Weather History & Observations

Time (CST) Temp. Windchill Dew Point Humidity Pressure Visibility Wind Dir Wind Speed Gust Speed Precip Events Conditions
12:15 AM 21.9 °F 13.4 °F 15.6 °F 77% 29.42 in 10.0 mi South 6.9 mph - N/A   Mostly Cloudy
12:35 AM 22.1 °F 13.7 °F 15.4 °F 76% 29.41 in 10.0 mi South 6.9 mph - N/A   Scattered Clouds
12:55 AM 21.9 °F 15.7 °F 15.3 °F 76% 29.41 in 10.0 mi SSE 4.6 mph - N/A   Scattered Clouds
1:15 AM 21.0 °F 11.4 °F 15.1 °F 78% 29.40 in 10.0 mi South 8.1 mph - N/A   Scattered Clouds
1:35 AM 20.3 °F 11.5 °F 14.7 °F 79% 29.39 in 10.0 mi South 6.9 mph - N/A   Clear
1:55 AM 18.9 °F 10.8 °F 13.8 °F 81% 29.38 in 10.0 mi SE 5.8 mph - N/A   Scattered Clouds
2:15 AM 19.8 °F 11.9 °F 14.5 °F 80% 29.37 in 10.0 mi SE 5.8 mph - N/A   Scattered Clouds
2:35 AM 20.3 °F 15.4 °F 14.9 °F 80% 29.36 in 10.0 mi SE 3.5 mph - N/A   Mostly Cloudy
2:55 AM 20.8 °F 16.0 °F 16.0 °F 81% 29.36 in 10.0 mi SSE 3.5 mph - N/A   Mostly Cloudy
3:15 AM 20.5 °F - 16.0 °F 83% 29.36 in 10.0 mi Calm Calm - N/A   Mostly Cloudy
3:35 AM 21.9 °F 17.2 °F 17.6 °F 83% 29.36 in 10.0 mi SE 3.5 mph - N/A   Overcast
3:55 AM 23.5 °F 19.1 °F 19.2 °F 84% 29.35 in 10.0 mi South 3.5 mph - N/A   Overcast
4:15 AM 23.4 °F - 19.4 °F 85% 29.35 in 10.0 mi Calm Calm - N/A   Overcast
4:35 AM 23.4 °F 18.9 °F 20.3 °F 88% 29.34 in 10.0 mi South 3.5 mph - N/A   Overcast
4:55 AM 27.0 °F 23.0 °F 22.8 °F 84% 29.34 in 10.0 mi SSW 3.5 mph - N/A   Overcast
5:15 AM 25.9 °F - 22.1 °F 86% 29.34 in 10.0 mi Calm Calm - N/A   Overcast
5:35 AM 27.3 °F 22.0 °F 24.3 °F 88% 29.34 in 10.0 mi SSW 4.6 mph - N/A   Overcast
5:55 AM 29.5 °F 23.4 °F 26.8 °F 90% 29.33 in 10.0 mi SSW 5.8 mph - N/A   Overcast
6:15 AM 31.1 °F 26.4 °F 28.0 °F 88% 29.33 in 10.0 mi SW 4.6 mph - N/A   Overcast
6:35 AM 30.6 °F 25.8 °F 27.9 °F 90% 29.33 in 10.0 mi SW 4.6 mph - N/A   Overcast
6:55 AM 30.2 °F - 28.0 °F 92% 29.33 in 3.0 mi Calm Calm - N/A Snow Light Snow
7:15 AM 30.6 °F 27.1 °F 29.1 °F 94% 29.33 in 5.0 mi SW 3.5 mph - N/A Snow Light Snow
7:35 AM 31.1 °F 25.4 °F 29.8 °F 95% 29.33 in 5.0 mi SW 5.8 mph - N/A Snow Light Snow
7:55 AM 32.2 °F 25.8 °F 31.1 °F 96% 29.33 in 7.0 mi WSW 6.9 mph - N/A Snow Light Snow
8:15 AM 33.1 °F 26.1 °F 31.1 °F 92% 29.34 in 10.0 mi WSW 8.1 mph - N/A   Overcast
8:35 AM 33.8 °F 27.0 °F 31.1 °F 90% 29.34 in 5.0 mi WSW 8.1 mph - N/A Snow Light Snow
8:55 AM 34.0 °F 27.2 °F 31.5 °F 90% 29.34 in 5.0 mi WSW 8.1 mph - N/A Snow Light Snow
9:15 AM 34.0 °F 27.2 °F 31.6 °F 91% 29.35 in 1.5 mi West 8.1 mph - N/A Snow Light Snow
9:35 AM 31.3 °F 18.9 °F 26.1 °F 81% 29.38 in 2.5 mi WNW 20.7 mph 32.2 mph N/A Snow Light Snow
9:55 AM 30.4 °F 16.2 °F 20.3 °F 66% 29.40 in 5.0 mi WNW 26.5 mph 32.2 mph N/A   Haze
10:15 AM 28.4 °F 12.5 °F 17.2 °F 63% 29.41 in 3.0 mi WNW 31.1 mph 42.6 mph N/A   Haze
10:35 AM 27.5 °F 14.6 °F 15.6 °F 61% 29.42 in 5.0 mi WNW 18.4 mph 28.8 mph N/A   Haze
10:55 AM 27.9 °F 17.3 °F 15.8 °F 61% 29.43 in 10.0 mi WNW 12.7 mph 18.4 mph N/A   Overcast
11:15 AM 25.0 °F 10.6 °F 15.1 °F 66% 29.43 in 3.0 mi WNW 20.7 mph 32.2 mph N/A   Haze
11:35 AM 25.3 °F 12.2 °F 14.0 °F 62% 29.44 in 7.0 mi West 17.3 mph 24.2 mph N/A   Overcast
11:55 AM 24.8 °F 11.1 °F 12.2 °F 59% 29.45 in 7.0 mi West 18.4 mph 27.6 mph N/A   Overcast
12:15 PM 24.6 °F 9.7 °F 10.9 °F 56% 29.45 in 7.0 mi West 21.9 mph 26.5 mph N/A   Overcast
12:35 PM 24.1 °F 10.6 °F 9.9 °F 55% 29.46 in 5.0 mi West 17.3 mph 29.9 mph N/A   Haze
12:55 PM 23.0 °F 7.6 °F 9.1 °F 55% 29.47 in 7.0 mi West 21.9 mph 28.8 mph N/A   Overcast
1:15 PM 22.1 °F 6.8 °F 9.1 °F 58% 29.48 in 10.0 mi West 20.7 mph 25.3 mph N/A   Overcast
1:35 PM 21.9 °F 9.2 °F 9.7 °F 59% 29.48 in 10.0 mi WNW 13.8 mph 19.6 mph N/A   Overcast
1:55 PM 19.8 °F 4.1 °F 10.4 °F 67% 29.50 in 3.0 mi WNW 19.6 mph 32.2 mph N/A   Haze
2:55 PM 15.6 °F -2.9 °F 5.2 °F 63% 29.55 in 4.0 mi WNW 24.2 mph 32.2 mph N/A   Haze
3:15 PM 15.1 °F -2.0 °F 4.1 °F 62% 29.58 in 7.0 mi WNW 19.6 mph 25.3 mph N/A   Overcast
3:35 PM 13.8 °F -3.2 °F 2.7 °F 61% 29.60 in 7.0 mi NW 18.4 mph - N/A   Overcast
3:55 PM 13.1 °F -3.7 °F 1.8 °F 61% 29.61 in 10.0 mi WNW 17.3 mph 23.0 mph N/A   Overcast
4:15 PM 12.6 °F -5.3 °F 0.7 °F 59% 29.63 in 7.0 mi NW 19.6 mph 26.5 mph N/A   Overcast
4:35 PM 12.0 °F -5.1 °F 2.7 °F 66% 29.65 in 7.0 mi WNW 17.3 mph 27.6 mph N/A   Overcast
4:55 PM 11.1 °F -5.1 °F 0.1 °F 61% 29.67 in 10.0 mi NW 15.0 mph 26.5 mph N/A   Overcast
5:15 PM 10.8 °F -6.2 °F -0.9 °F 59% 29.68 in 10.0 mi NW 16.1 mph 26.5 mph N/A   Overcast
5:35 PM 10.8 °F -5.0 °F -0.9 °F 59% 29.69 in 10.0 mi NW 13.8 mph - N/A   Overcast
5:55 PM 10.4 °F -5.4 °F 1.0 °F 66% 29.71 in 10.0 mi WNW 13.8 mph 18.4 mph N/A   Overcast
6:15 PM 10.2 °F -6.3 °F -0.2 °F 63% 29.71 in 10.0 mi WNW 15.0 mph 19.6 mph N/A   Overcast
6:35 PM 10.0 °F -3.7 °F -0.8 °F 62% 29.73 in 10.0 mi WNW 10.4 mph 17.3 mph N/A   Overcast
6:55 PM 9.5 °F -5.9 °F -0.8 °F 63% 29.73 in 10.0 mi WNW 12.7 mph 21.9 mph N/A   Overcast
7:15 PM 9.5 °F -5.2 °F -0.6 °F 64% 29.74 in 10.0 mi WNW 11.5 mph - N/A   Overcast
7:35 PM 9.3 °F -6.1 °F -0.6 °F 64% 29.74 in 10.0 mi WNW 12.7 mph 21.9 mph N/A   Overcast
7:55 PM 9.1 °F -7.0 °F -0.4 °F 65% 29.75 in 10.0 mi WNW 13.8 mph 18.4 mph N/A   Overcast
8:15 PM 9.3 °F -4.6 °F 0.1 °F 66% 29.75 in 10.0 mi WNW 10.4 mph 19.6 mph N/A   Overcast
8:35 PM 9.1 °F -4.9 °F 0.5 °F 68% 29.75 in 10.0 mi WNW 10.4 mph - N/A   Overcast
8:55 PM 9.1 °F -6.4 °F 0.5 °F 68% 29.75 in 10.0 mi WNW 12.7 mph 18.4 mph N/A   Overcast
9:15 PM 9.3 °F -5.4 °F 0.5 °F 67% 29.76 in 10.0 mi WNW 11.5 mph 18.4 mph N/A   Overcast
9:35 PM 9.3 °F -5.4 °F 0.7 °F 68% 29.76 in 10.0 mi WNW 11.5 mph - N/A   Overcast
9:55 PM 9.5 °F -5.9 °F 0.9 °F 68% 29.77 in 10.0 mi WNW 12.7 mph - N/A   Overcast
10:15 PM 9.5 °F -4.4 °F 1.2 °F 69% 29.78 in 10.0 mi WNW 10.4 mph - N/A   Overcast
10:35 PM 9.5 °F -4.4 °F 1.8 °F 71% 29.78 in 5.0 mi West 10.4 mph 17.3 mph N/A   Haze
10:55 PM 9.3 °F -6.1 °F 2.3 °F 73% 29.77 in 4.0 mi West 12.7 mph 19.6 mph N/A Snow Light Snow
11:15 PM 9.3 °F -5.4 °F 3.0 °F 76% 29.78 in 2.5 mi WNW 11.5 mph - N/A Snow Light Snow
11:35 PM 9.3 °F -6.1 °F 3.2 °F 76% 29.78 in 4.0 mi WNW 12.7 mph - N/A Snow Light Snow
11:55 PM 9.3 °F -6.8 °F 3.2 °F 76% 29.78 in 3.0 mi WNW 13.8 mph 20.7 mph N/A Snow Light Snow